TimeCST,TemperatureF,Dew PointF,Humidity,Sea Level PressureIn,VisibilityMPH,Wind Direction,Wind SpeedMPH,Gust SpeedMPH,PrecipitationIn,Events,Conditions,WindDirDegrees,DateUTC
12:15 AM,17.6,8.6,68,30.12,10.0,SSW,9.2,-,N/A,,Clear,200,2013-01-03 06:15:00
12:35 AM,17.6,8.6,68,30.12,10.0,SSW,8.1,-,N/A,,Scattered Clouds,210,2013-01-03 06:35:00
12:55 AM,19.4,10.4,68,30.11,10.0,SSW,6.9,-,N/A,,Overcast,200,2013-01-03 06:55:00
1:15 AM,19.4,10.4,68,30.12,10.0,SSW,10.4,-,N/A,,Overcast,210,2013-01-03 07:15:00
1:35 AM,19.4,10.4,68,30.12,10.0,SSW,8.1,-,N/A,,Overcast,210,2013-01-03 07:35:00
1:55 AM,19.4,10.4,68,30.12,10.0,SSW,5.8,-,N/A,,Overcast,200,2013-01-03 07:55:00
2:15 AM,19.4,12.2,74,30.12,10.0,SSW,8.1,-,N/A,,Overcast,200,2013-01-03 08:15:00
2:35 AM,21.2,12.2,68,30.12,10.0,SSW,4.6,-,N/A,,Overcast,200,2013-01-03 08:35:00
2:55 AM,21.2,12.2,68,30.12,10.0,SSW,4.6,-,N/A,,Overcast,210,2013-01-03 08:55:00
3:15 AM,21.2,14.0,74,30.11,10.0,SSW,4.6,-,N/A,,Overcast,200,2013-01-03 09:15:00
3:35 AM,21.2,14.0,74,30.11,10.0,SSW,5.8,-,N/A,,Overcast,210,2013-01-03 09:35:00
3:55 AM,23.0,15.8,74,30.10,10.0,SSW,6.9,-,N/A,,Overcast,210,2013-01-03 09:55:00
4:15 AM,23.0,15.8,74,30.10,10.0,SW,6.9,-,N/A,,Overcast,220,2013-01-03 10:15:00
4:35 AM,23.0,17.6,80,30.10,10.0,SW,8.1,-,N/A,,Overcast,230,2013-01-03 10:35:00
4:55 AM,23.0,17.6,80,30.10,10.0,SW,6.9,-,N/A,,Overcast,220,2013-01-03 10:55:00
5:15 AM,23.0,17.6,80,30.10,10.0,SSW,10.4,-,N/A,,Overcast,210,2013-01-03 11:15:00
5:35 AM,23.0,17.6,80,30.10,10.0,SW,9.2,-,N/A,,Overcast,220,2013-01-03 11:35:00
5:55 AM,23.0,17.6,80,30.12,10.0,SW,10.4,-,N/A,,Overcast,230,2013-01-03 11:55:00
6:15 AM,23.0,19.4,86,30.12,10.0,WSW,9.2,-,N/A,,Overcast,240,2013-01-03 12:15:00
6:35 AM,23.0,19.4,86,30.12,10.0,SW,9.2,-,N/A,,Overcast,230,2013-01-03 12:35:00
7:15 AM,24.8,19.4,80,30.12,10.0,SW,9.2,-,N/A,,Overcast,220,2013-01-03 13:15:00
7:35 AM,24.8,21.2,86,30.13,7.0,SW,9.2,-,N/A,,Overcast,230,2013-01-03 13:35:00
7:55 AM,26.6,21.2,80,30.12,7.0,WSW,8.1,-,N/A,,Overcast,240,2013-01-03 13:55:00
8:15 AM,26.6,21.2,80,30.13,7.0,SW,9.2,-,N/A,,Overcast,230,2013-01-03 14:15:00
8:35 AM,26.6,23.0,86,30.13,7.0,SW,8.1,-,N/A,,Overcast,230,2013-01-03 14:35:00
8:55 AM,28.4,23.0,80,30.14,7.0,WSW,8.1,-,N/A,,Overcast,240,2013-01-03 14:55:00
9:15 AM,28.4,23.0,80,30.14,7.0,SW,6.9,-,N/A,,Overcast,230,2013-01-03 15:15:00
9:35 AM,28.4,23.0,80,30.15,5.0,SW,5.8,-,N/A,,Haze,230,2013-01-03 15:35:00
9:55 AM,30.2,24.8,80,30.15,5.0,WSW,6.9,-,N/A,,Haze,250,2013-01-03 15:55:00
10:15 AM,30.2,24.8,80,30.15,7.0,West,11.5,20.7,N/A,,Overcast,270,2013-01-03 16:15:00
10:35 AM,32.0,23.0,69,30.16,10.0,West,10.4,17.3,N/A,,Overcast,270,2013-01-03 16:35:00
10:55 AM,32.0,24.8,75,30.15,10.0,West,11.5,17.3,N/A,,Overcast,260,2013-01-03 16:55:00
11:15 AM,32.0,23.0,69,30.14,10.0,West,10.4,24.2,N/A,,Overcast,270,2013-01-03 17:15:00
11:35 AM,32.0,24.8,75,30.14,10.0,West,10.4,18.4,N/A,,Overcast,260,2013-01-03 17:35:00
11:55 AM,32.0,23.0,69,30.14,10.0,West,11.5,18.4,N/A,,Overcast,270,2013-01-03 17:55:00
12:15 PM,30.2,23.0,75,30.14,10.0,West,10.4,17.3,N/A,,Overcast,270,2013-01-03 18:15:00
12:35 PM,30.2,23.0,75,30.14,10.0,West,8.1,18.4,N/A,,Overcast,280,2013-01-03 18:35:00
12:55 PM,30.2,23.0,75,30.15,10.0,West,11.5,17.3,N/A,,Overcast,270,2013-01-03 18:55:00
1:15 PM,30.2,21.2,69,30.15,10.0,WNW,9.2,-,N/A,,Overcast,290,2013-01-03 19:15:00
1:35 PM,30.2,23.0,75,30.15,10.0,West,9.2,-,N/A,,Overcast,260,2013-01-03 19:35:00
1:55 PM,30.2,24.8,80,30.16,7.0,WSW,8.1,16.1,N/A,,Overcast,240,2013-01-03 19:55:00
2:15 PM,30.2,23.0,75,30.17,10.0,West,13.8,18.4,N/A,,Overcast,260,2013-01-03 20:15:00
2:35 PM,30.2,23.0,75,30.17,10.0,West,9.2,-,N/A,,Overcast,270,2013-01-03 20:35:00
2:55 PM,30.2,23.0,75,30.18,10.0,West,11.5,19.6,N/A,,Overcast,260,2013-01-03 20:55:00
3:15 PM,30.2,23.0,75,30.19,10.0,West,8.1,19.6,N/A,,Overcast,260,2013-01-03 21:15:00
3:35 PM,30.2,21.2,69,30.19,10.0,West,8.1,-,N/A,,Overcast,260,2013-01-03 21:35:00
3:55 PM,30.2,21.2,69,30.19,10.0,West,6.9,-,N/A,,Overcast,270,2013-01-03 21:55:00
4:15 PM,30.2,19.4,64,30.20,10.0,West,10.4,-,N/A,,Overcast,260,2013-01-03 22:15:00
4:55 PM,30.2,21.2,69,30.21,10.0,WSW,9.2,-,N/A,,Overcast,240,2013-01-03 22:55:00
5:15 PM,30.2,21.2,69,30.22,10.0,WSW,6.9,-,N/A,,Overcast,250,2013-01-03 23:15:00
5:35 PM,30.2,21.2,69,30.22,10.0,West,5.8,-,N/A,,Overcast,270,2013-01-03 23:35:00
5:55 PM,30.2,21.2,69,30.22,10.0,West,8.1,-,N/A,,Overcast,270,2013-01-03 23:55:00
6:15 PM,30.2,19.4,64,30.22,10.0,West,8.1,-,N/A,,Overcast,270,2013-01-04 00:15:00
6:35 PM,30.2,21.2,69,30.23,10.0,West,10.4,-,N/A,,Overcast,260,2013-01-04 00:35:00
6:55 PM,30.2,19.4,64,30.24,10.0,WSW,8.1,-,N/A,,Overcast,250,2013-01-04 00:55:00
7:15 PM,30.2,21.2,69,30.24,10.0,West,10.4,16.1,N/A,,Overcast,260,2013-01-04 01:15:00
7:35 PM,28.4,21.2,74,30.24,10.0,West,9.2,-,N/A,,Overcast,260,2013-01-04 01:35:00
7:55 PM,28.4,21.2,74,30.24,10.0,West,8.1,-,N/A,,Overcast,270,2013-01-04 01:55:00
8:15 PM,28.4,21.2,74,30.24,10.0,WSW,6.9,-,N/A,,Overcast,240,2013-01-04 02:15:00
8:35 PM,28.4,19.4,69,30.24,10.0,SW,8.1,-,N/A,,Overcast,220,2013-01-04 02:35:00
8:55 PM,28.4,21.2,74,30.24,10.0,WSW,10.4,-,N/A,,Overcast,250,2013-01-04 02:55:00
9:15 PM,28.4,21.2,74,30.24,10.0,West,8.1,-,N/A,,Overcast,260,2013-01-04 03:15:00
9:35 PM,28.4,21.2,74,30.24,10.0,West,10.4,17.3,N/A,,Overcast,260,2013-01-04 03:35:00
9:55 PM,28.4,21.2,74,30.24,10.0,West,8.1,-,N/A,,Overcast,280,2013-01-04 03:55:00
10:15 PM,26.6,21.2,80,30.24,10.0,West,8.1,-,N/A,,Overcast,260,2013-01-04 04:15:00
10:35 PM,26.6,19.4,74,30.24,10.0,West,4.6,-,N/A,,Scattered Clouds,260,2013-01-04 04:35:00
10:55 PM,24.8,19.4,80,30.24,10.0,WSW,6.9,-,N/A,,Clear,240,2013-01-04 04:55:00
11:15 PM,23.0,17.6,80,30.24,10.0,SW,8.1,-,N/A,,Clear,230,2013-01-04 05:15:00
11:35 PM,23.0,17.6,80,30.24,10.0,WSW,8.1,-,N/A,,Clear,240,2013-01-04 05:35:00
11:55 PM,23.0,17.6,80,30.24,10.0,WSW,6.9,-,N/A,,Clear,240,2013-01-04 05:55:00